Date String (YYYY-MM-DD hh:mm:ss) UTC,Instrument flags,Ambient pressure (hPa),Sample flow (lpm),Bypass flow (lpm),Sample temperature (°C),Ambient temperature (°C),ASC tube jacket temperature (°C),LED temperature (°C),Box temperature (°C),Sample RH (%),Span deviation,Mass concentration (μg/m³),Mass concentration (μg/m³),Mass concentration (μg/m³)
DateTimeUTC,F1_M11,P_M11,Q1_M11,Q2_M11,T1_M11,T2_M11,T3_M11,T4_M11,T5_M11,U1_M11,ZSPAN_M11,X0_M11,X2_M11,X1_M11
2022-08-03 00:00:00,,0824.6,4.99,0.00,29.3,27.1,00.0,38.0,31.1,26.1,0000.0,0002.46,0001.17,0000.96
2022-08-03 00:01:00,,0824.6,5.00,0.00,29.2,27.1,00.0,38.0,31.0,25.9,0000.0,0002.46,0001.16,0000.95
2022-08-03 00:02:00,,0824.6,5.01,0.00,29.2,27.2,00.0,38.0,31.0,26.2,0000.0,0002.50,0001.18,0000.95
2022-08-03 00:03:00,,0824.7,5.00,0.00,29.2,27.5,00.0,38.0,31.0,26.3,0000.0,0002.62,0001.21,0000.95
2022-08-03 00:04:00,,0824.7,4.99,0.00,29.2,27.7,00.0,38.0,31.1,26.3,0000.0,0002.54,0001.19,0000.94
2022-08-03 00:05:00,,0824.7,5.00,0.00,29.3,27.9,00.0,38.0,31.2,25.7,0000.0,0002.50,0001.20,0000.94
2022-08-03 00:06:00,,0824.7,5.01,0.00,29.3,28.1,00.0,38.0,31.3,25.8,0000.0,0002.46,0001.19,0000.94
2022-08-03 00:07:00,,0824.8,5.00,0.00,29.4,28.2,00.0,38.0,31.3,25.9,0000.0,0002.04,0001.18,0000.94
2022-08-03 00:08:00,,0824.7,5.01,0.00,29.4,27.7,00.0,38.0,31.2,25.7,0000.0,0001.92,0001.20,0000.94
2022-08-03 00:09:00,,0824.7,4.98,0.00,29.3,27.2,00.0,38.0,31.1,25.8,0000.0,0002.00,0001.22,0000.95
2022-08-03 00:10:00,,0824.7,5.00,0.00,29.3,27.1,00.0,38.0,31.1,26.2,0000.0,0001.94,0001.22,0000.94
2022-08-03 00:11:00,,0824.7,5.01,0.00,29.2,27.2,00.0,38.0,31.0,26.4,0000.0,0001.91,0001.21,0000.95
2022-08-03 00:12:00,,0824.7,5.00,0.00,29.2,27.3,00.0,38.0,31.0,26.6,0000.0,0001.90,0001.21,0000.95
2022-08-03 00:13:00,,0824.7,4.99,0.00,29.2,27.5,00.0,38.0,31.1,26.2,0000.0,0002.02,0001.22,0000.97
2022-08-03 00:14:00,,0824.7,4.99,0.00,29.2,27.8,00.0,38.0,31.1,25.8,0000.0,0002.05,0001.23,0000.98
2022-08-03 00:15:00,,0824.8,5.00,0.00,29.3,28.0,00.0,38.0,31.2,25.6,0000.0,0002.07,0001.24,0000.99
2022-08-03 00:16:00,,0824.8,5.00,0.00,29.3,28.2,00.0,38.0,31.3,25.9,0000.0,0002.01,0001.25,0001.00
2022-08-03 00:17:00,,0824.8,5.00,0.00,29.4,28.3,00.0,38.0,31.4,26.3,0000.0,0002.04,0001.28,0001.01
2022-08-03 00:18:00,,0824.8,5.00,0.00,29.4,27.9,00.0,38.0,31.3,25.7,0000.0,0002.13,0001.32,0001.03
2022-08-03 00:19:00,,0824.8,4.99,0.00,29.3,27.2,00.0,38.0,31.1,25.8,0000.0,0002.18,0001.33,0001.03
2022-08-03 00:20:00,,0824.9,5.00,0.00,29.3,27.1,00.0,38.0,31.1,25.7,0000.0,0002.17,0001.34,0001.03
2022-08-03 00:21:00,,0824.9,5.01,0.00,29.2,27.1,00.0,38.0,31.0,26.3,0000.0,0002.14,0001.33,0001.04
2022-08-03 00:22:00,,0824.9,4.99,0.00,29.2,27.3,00.0,38.0,31.0,26.4,0000.0,0002.18,0001.33,0001.05
2022-08-03 00:23:00,,0824.9,5.01,0.00,29.2,27.5,00.0,38.0,31.1,26.6,0000.0,0002.27,0001.37,0001.06
2022-08-03 00:24:00,,0824.9,5.01,0.00,29.2,27.7,00.0,38.0,31.2,26.8,0000.0,0002.28,0001.38,0001.06
2022-08-03 00:25:00,,0824.9,5.00,0.00,29.3,27.9,00.0,38.0,31.2,26.3,0000.0,0002.68,0001.37,0001.05
2022-08-03 00:26:00,,0824.9,5.00,0.00,29.3,28.1,00.0,38.0,31.3,25.6,0000.0,0003.00,0001.38,0001.05
2022-08-03 00:27:00,,0824.9,5.00,0.00,29.4,28.1,00.0,38.1,31.3,25.2,0000.0,0003.15,0001.40,0001.05
2022-08-03 00:28:00,,0824.9,4.99,0.00,29.3,27.6,00.0,38.0,31.1,25.7,0000.0,0003.52,0001.38,0001.05
2022-08-03 00:29:00,,0824.9,5.01,0.00,29.3,27.1,00.0,38.0,31.0,26.0,0000.0,0003.70,0001.38,0001.06
2022-08-03 00:30:00,,0824.8,5.01,0.00,29.3,27.0,00.0,38.0,31.0,26.1,0000.0,0003.84,0001.41,0001.06
2022-08-03 00:31:00,,0824.8,4.99,0.00,29.2,27.2,00.0,38.0,31.0,26.0,0000.0,0003.81,0001.39,0001.05
2022-08-03 00:32:00,,0824.8,5.02,0.00,29.2,27.3,00.0,38.0,31.0,25.7,0000.0,0004.41,0001.43,0001.07
2022-08-03 00:33:00,,0824.8,5.00,0.00,29.2,27.6,00.0,38.0,31.1,25.2,0000.0,0005.13,0001.47,0001.07
2022-08-03 00:34:00,,0824.9,5.00,0.00,29.2,27.8,00.0,38.0,31.1,25.1,0000.0,0005.16,0001.47,0001.07
2022-08-03 00:35:00,,0824.9,5.00,0.00,29.3,28.0,00.0,38.0,31.2,25.3,0000.0,0005.24,0001.50,0001.08
2022-08-03 00:36:00,,0824.9,5.01,0.00,29.3,28.1,00.0,38.0,31.3,26.3,0000.0,0004.96,0001.50,0001.09
2022-08-03 00:37:00,,0824.9,5.00,0.00,29.4,28.2,00.0,38.1,31.3,27.1,0000.0,0004.40,0001.46,0001.08
2022-08-03 00:38:00,,0824.9,5.01,0.00,29.4,27.7,00.0,38.0,31.2,27.4,0000.0,0004.23,0001.42,0001.07
2022-08-03 00:39:00,,0824.9,4.99,0.00,29.3,27.1,00.0,38.0,31.0,27.6,0000.0,0004.10,0001.46,0001.06
2022-08-03 00:40:00,,0824.9,5.00,0.00,29.3,27.0,00.0,38.0,31.0,27.2,0000.0,0004.12,0001.48,0001.05
2022-08-03 00:41:00,,0824.9,4.99,0.00,29.2,27.1,00.0,38.0,31.0,27.1,0000.0,0005.11,0001.46,0001.04
2022-08-03 00:42:00,,0825.0,5.01,0.00,29.2,27.3,00.0,38.0,31.0,26.5,0000.0,0005.34,0001.44,0001.04
2022-08-03 00:43:00,,0825.0,4.99,0.00,29.2,27.5,00.0,38.0,31.1,26.5,0000.0,0005.27,0001.43,0001.04
2022-08-03 00:44:00,,0825.1,5.00,0.00,29.2,27.7,00.0,38.0,31.1,27.2,0000.0,0004.17,0001.39,0001.02
2022-08-03 00:45:00,,0825.1,5.01,0.00,29.3,27.9,00.0,38.0,31.2,27.1,0000.0,0004.08,0001.37,0001.00
2022-08-03 00:46:00,,0825.1,5.00,0.00,29.3,28.1,00.0,38.0,31.3,27.1,0000.0,0004.12,0001.34,0000.99
2022-08-03 00:47:00,,0825.1,4.99,0.00,29.4,28.2,00.0,38.0,31.3,27.2,0000.0,0004.72,0001.31,0000.99
2022-08-03 00:48:00,,0825.2,5.00,0.00,29.4,27.7,00.0,38.0,31.2,27.3,0000.0,0005.06,0001.37,0001.00
2022-08-03 00:49:00,,0825.1,4.99,0.00,29.3,27.1,00.0,38.0,31.1,27.6,0000.0,0005.17,0001.40,0001.00
2022-08-03 00:50:00,,0825.2,5.01,0.00,29.3,27.0,00.0,38.0,31.1,27.9,0000.0,0005.14,0001.40,0001.00
2022-08-03 00:51:00,,0825.2,4.99,0.00,29.2,27.1,00.0,38.0,31.0,27.7,0000.0,0004.96,0001.35,0000.99
2022-08-03 00:52:00,,0825.2,5.00,0.00,29.2,27.2,00.0,37.9,31.0,28.0,0000.0,0003.60,0001.33,0000.99
2022-08-03 00:53:00,,0825.3,4.99,0.00,29.2,27.4,00.0,37.9,31.0,27.9,0000.0,0003.34,0001.32,0000.99
2022-08-03 00:54:00,,0825.3,5.02,0.00,29.2,27.6,00.0,37.9,31.1,27.9,0000.0,0003.40,0001.36,0000.99
2022-08-03 00:55:00,,0825.3,4.99,0.00,29.2,27.8,00.0,38.0,31.1,28.3,0000.0,0003.56,0001.39,0001.00
2022-08-03 00:56:00,,0825.3,5.01,0.00,29.3,28.0,00.0,38.0,31.2,28.7,0000.0,0003.69,0001.42,0001.01
2022-08-03 00:57:00,,0825.3,5.00,0.00,29.3,28.2,00.0,38.0,31.3,28.9,0000.0,0004.06,0001.53,0001.00
2022-08-03 00:58:00,,0825.3,4.99,0.00,29.4,28.1,00.0,38.0,31.3,29.6,0000.0,0003.70,0001.66,0001.04
2022-08-03 00:59:00,,0825.3,5.01,0.00,29.3,27.5,00.0,38.0,31.1,30.2,0000.0,0003.86,0001.80,0001.12
